Address 0x0a4f290e5763e78479c692990fb9d96308065496 11

Txn Hash Method
Block
From
To
Value [Txn Fee]
0x938177095bd4a075e371e0a919bbf3b2d29e984810d05683d2f61b6cab0e5bbc0x6549920d139713592022-09-26 3:24:251 day 22 hrs ago0x0a4f290e5763e78479c692990fb9d96308065496OUT0x2e1d0c56c6913fd6135f887080f7a14123a142a80 AVAX0.064629100
0xd469e8d98b2cba5992fea7f2f5a6d3118d4292c060fcb038189ff993f72f5b860xbef1e500139697922022-09-26 2:56:171 day 23 hrs ago0x0a4f290e5763e78479c692990fb9d96308065496OUT0x2e1d0c56c6913fd6135f887080f7a14123a142a80 AVAX0.026724100
0x86b8c2b490e41874fbb228f0b2fb1518c2d0abeef54be930723e7cefe3d0fa2a0x6549920d139689902022-09-26 2:42:121 day 23 hrs ago0x0a4f290e5763e78479c692990fb9d96308065496OUT0x2e1d0c56c6913fd6135f887080f7a14123a142a80 AVAX0.0638322100
0xea8dc890c245a29c5bb3764cbcf3e6f1f7f5233e17745d1343138b3518a588dd0xbef1e500139676452022-09-26 2:18:391 day 23 hrs ago0x0a4f290e5763e78479c692990fb9d96308065496OUT0x2e1d0c56c6913fd6135f887080f7a14123a142a80 AVAX0.026724100
0xe84d0512dda354aaa55ec2427f9aa2ef2e98e60a90c4a685c8c6ed924f362d920x6549920d139665032022-09-26 1:58:482 days 11 mins ago0x0a4f290e5763e78479c692990fb9d96308065496OUT0x2e1d0c56c6913fd6135f887080f7a14123a142a80 AVAX0.0649219100
0x9cc3f01d67744ce5ebee19b75f03422e23700e31237e33b238822b238272f30d0xbef1e500139654452022-09-26 1:40:282 days 30 mins ago0x0a4f290e5763e78479c692990fb9d96308065496OUT0x2e1d0c56c6913fd6135f887080f7a14123a142a80 AVAX0.028434100
0xcb25810da08cbc6e756c0eb99995950045ce6e6651f9bad5749f9e2c1e00d9510x6549920d139640382022-09-26 1:15:452 days 54 mins ago0x0a4f290e5763e78479c692990fb9d96308065496OUT0x2e1d0c56c6913fd6135f887080f7a14123a142a80 AVAX0.066339100
0x2bbec2debeb81b57c99a4c365d27b448ccbb68e6959ce941ca139797bfa08aeb0x6549920d139617792022-09-26 0:33:152 days 1 hr ago0x0a4f290e5763e78479c692990fb9d96308065496OUT0x2e1d0c56c6913fd6135f887080f7a14123a142a80 AVAX0.0655422100
0xebe57ffe0385aadeeb54d29dfaf2dadac219a4987ab36f7db56a8cb59226c9f50x6549920d139595042022-09-25 23:51:522 days 2 hrs ago0x0a4f290e5763e78479c692990fb9d96308065496OUT0x2e1d0c56c6913fd6135f887080f7a14123a142a80 AVAX0.0649219100
0xcf62a7ba0c0bebcab61d813d56b1d7e35bca683e099dd518d6f059eaf8d6d1040x6549920d139572052022-09-25 23:08:482 days 3 hrs ago0x0a4f290e5763e78479c692990fb9d96308065496OUT0x2e1d0c56c6913fd6135f887080f7a14123a142a80 AVAX0.068049100
0xf2e08d1f73134deeda3c97e85e292b4184f6740ff624052c864556782d79950e0x6549920d139548962022-09-25 22:25:442 days 3 hrs ago0x0a4f290e5763e78479c692990fb9d96308065496OUT0x2e1d0c56c6913fd6135f887080f7a14123a142a80 AVAX0.0655422100
0xd42d3380a8b36ed35f55da4d25d6cc490b419b019f322ef5870ffaea7bc7e1630x6549920d139525772022-09-25 21:42:542 days 4 hrs ago0x0a4f290e5763e78479c692990fb9d96308065496OUT0x2e1d0c56c6913fd6135f887080f7a14123a142a80 AVAX0.0649219100
0xb9bd9266907602490091b7efc043d079f78cd23e0ea191f4d2fce6a4daff8ebc0x6549920d139502582022-09-25 20:59:302 days 5 hrs ago0x0a4f290e5763e78479c692990fb9d96308065496OUT0x2e1d0c56c6913fd6135f887080f7a14123a142a80 AVAX0.068049100
0x5490f1860741bab535c66466b17b68a0431eb6aed5d417573317c2f8c51f963e0x6549920d139478772022-09-25 20:14:432 days 5 hrs ago0x0a4f290e5763e78479c692990fb9d96308065496OUT0x2e1d0c56c6913fd6135f887080f7a14123a142a80 AVAX0.0655422100
0xd6bbb6ff8f43514a2b8ea8de88c05fe7a31d9b2252185da9623f4e3a1d76d745Harvest139463972022-09-25 19:46:592 days 6 hrs ago0x0a4f290e5763e78479c692990fb9d96308065496OUT0x951accccfdf619d3cd8cfe0e4823d8e80354eb410 AVAX0.0081923100
0xc009047fe7a21222640894fc597fdd44a3275291cfddef76439969f16339c7910x6549920d139455332022-09-25 19:31:022 days 6 hrs ago0x0a4f290e5763e78479c692990fb9d96308065496OUT0x2e1d0c56c6913fd6135f887080f7a14123a142a80 AVAX0.0649219100
0x60670202d1a992dc22e8989c1bc8053478c7112b755de36b30eeb911858e93c0Harvest139442082022-09-25 19:06:232 days 7 hrs ago0x0a4f290e5763e78479c692990fb9d96308065496OUT0x951accccfdf619d3cd8cfe0e4823d8e80354eb410 AVAX0.00647100
0x2a1793c7e9c83c085fa84d89076fe495e9941f1d45a322c91f7d5414d9c50d2d0x6549920d139431152022-09-25 18:44:552 days 7 hrs ago0x0a4f290e5763e78479c692990fb9d96308065496OUT0x2e1d0c56c6913fd6135f887080f7a14123a142a80 AVAX0.068049100
0x2e07adf3ed869689d639fa9148a109a003778b6059e22429d692b34bcbecde75Harvest139419962022-09-25 18:23:532 days 7 hrs ago0x0a4f290e5763e78479c692990fb9d96308065496OUT0x951accccfdf619d3cd8cfe0e4823d8e80354eb410 AVAX0.00647100
0xc0efa2c7d78b7efc05d757a514462666b0f5e64e4f223a322bf5954287d56b4f0x6549920d139407302022-09-25 17:58:482 days 8 hrs ago0x0a4f290e5763e78479c692990fb9d96308065496OUT0x2e1d0c56c6913fd6135f887080f7a14123a142a80 AVAX0.0672522100
0xad95ddac9173bce413910b71cbf6484c0cac589715f86af3ea2cf1773c332111Harvest139397982022-09-25 17:40:192 days 8 hrs ago0x0a4f290e5763e78479c692990fb9d96308065496OUT0x951accccfdf619d3cd8cfe0e4823d8e80354eb410 AVAX0.0081923100
0x20fd9e6b05db87ee3c2fc01ec275ebf131f640d60aa89bd3bae94d4d049feab90x6549920d139382772022-09-25 17:10:512 days 8 hrs ago0x0a4f290e5763e78479c692990fb9d96308065496OUT0x2e1d0c56c6913fd6135f887080f7a14123a142a80 AVAX0.0666319100
0x48ee06af452fe674dd61ac5ac3466f00209ab87052c6d916dece72f695b8f9d2Harvest139374912022-09-25 16:55:102 days 9 hrs ago0x0a4f290e5763e78479c692990fb9d96308065496OUT0x951accccfdf619d3cd8cfe0e4823d8e80354eb410 AVAX0.00647100
0x42b16d7eb6a7b9c79fe3175c2090f7503f81583733f5846adf12ae0883c935ed0x4ea4c6b3139363412022-09-25 16:24:512 days 9 hrs ago0x0a4f290e5763e78479c692990fb9d96308065496OUT0x2e1d0c56c6913fd6135f887080f7a14123a142a80 AVAX0.0212157100
0x26783c283e9b0694ee5ce7bf25dd4e4f5dbea67e3144d37e881cd9f7b80e36e80xab07211e139358152022-09-25 16:07:202 days 10 hrs ago0x0a4f290e5763e78479c692990fb9d96308065496OUT0x2e1d0c56c6913fd6135f887080f7a14123a142a80 AVAX0.0225895100
[ Download CSV Export 
Parent Txn Hash Block From To Value
Loading

Contract Name:
0

Compiler Version
0

Optimization Enabled:
0

Other Settings:
-NA-
Block Transaction Gas Used Reward
Age Block Fee Address BC Fee Address Voting Power Jailed Incoming
Block Uncle Number Difficulty Gas Used Reward
Loading